Salinas, CA

10:36 AM PST on December 10, 2016 (GMT -0800)
Salinas Municipal

Weather History for KSNS - November, 2013

Change the Weather History Date:

Thursday, November 14, 2013

  Actual Average Record
Temperature  
Mean Temperature 57 °F 56 °F  
Max Temperature 64 °F 67 °F 86 °F (2008)
Min Temperature 50 °F 45 °F 30 °F (1980)
Degree Days  
Heating Degree Days 8 9  
Month to date heating degree days 94 109  
Since 1 July heating degree days 381 443  
Cooling Degree Days 0 0  
Month to date cooling degree days 0 0  
Year to date cooling degree days 155 127  
Growing Degree Days 6 (Base 50)    
Moisture  
Dew Point 50 °F    
Average Humidity 84    
Maximum Humidity 100    
Minimum Humidity 67    
Precipitation  
Precipitation 0.00 in 0.05 in 0.81 in (1972)
Month to date precipitation 0.00 0.54  
Year to date precipitation 2.59 10.04  
Since 1 July precipitation 0.26  
Sea Level Pressure  
Sea Level Pressure 30.05 in    
Wind  
Wind Speed 6 mph (West)    
Max Wind Speed 17 mph    
Max Gust Speed 22 mph    
Visibility 4 miles    
Events Fog    
T = Trace of Precipitation, MM = Missing Value Source: NWS Daily Summary

Daily Weather History Graph

Daily Weather History Graph

Search for Another Location

Airport or City:

Trip Planner

Search our weather history database for the weather conditions in past years. The results will help you decide how hot, cold, wet, or windy it might be!

Date:

Astronomy

Nov. 14, 2013 Rise Set
Actual Time 6:43 AM PST 4:57 PM PST
Civil Twilight 6:16 AM PST 5:25 PM PST
Nautical Twilight 5:44 AM PST 5:56 PM PST
Astronomical Twilight 5:14 AM PST 6:27 PM PST
Moon 3:18 PM PST (11/14) 3:48 AM PST (11/14)
Length of Visible Light 11h 09m
Length of Day
10h 14m
Waxing Gibbous, 92% of the Moon is Illuminated
Nov 14
Waxing Gibbous
Nov 17
Full
Nov 25
Last Quarter
Dec 2
New
Dec 9
First Quarter

Hourly Weather History & Observations

Time (PST) Temp. Dew Point Humidity Pressure Visibility Wind Dir Wind Speed Gust Speed Precip Events Conditions
12:23 AM 53.6 °F 51.8 °F 94% 30.13 in 0.8 mi WNW 3.5 mph - N/A   Overcast
12:31 AM 53.6 °F 51.8 °F 94% 30.12 in 1.0 mi West 3.5 mph - N/A   Overcast
12:44 AM 53.6 °F 51.8 °F 94% 30.12 in 0.8 mi NNW 3.5 mph - N/A   Mist
12:53 AM 53.1 °F 51.1 °F 93% 30.14 in 0.8 mi Calm Calm - N/A   Mist
1:15 AM 51.8 °F 50.0 °F 94% 30.11 in 1.8 mi South 3.5 mph - N/A   Overcast
1:53 AM 52.0 °F 51.1 °F 97% 30.14 in 0.8 mi Calm Calm - N/A   Mist
2:53 AM 52.0 °F 50.0 °F 93% 30.13 in 0.2 mi Calm Calm - N/A Fog Fog
3:53 AM 51.1 °F 50.0 °F 96% 30.11 in 0.2 mi Calm Calm - N/A Fog Fog
4:53 AM 50.0 °F 48.9 °F 96% 30.09 in 0.2 mi South 3.5 mph - N/A Fog Fog
5:53 AM 50.0 °F 48.9 °F 96% 30.12 in 0.2 mi West 4.6 mph - N/A Fog Fog
6:10 AM 50.0 °F 48.2 °F 94% 30.09 in 0.8 mi WNW 4.6 mph - N/A   Mist
6:17 AM 50.0 °F 48.2 °F 94% 30.09 in 1.2 mi NNW 3.5 mph - N/A   Overcast
6:36 AM 51.8 °F 50.0 °F 94% 30.09 in 0.5 mi Calm Calm - N/A Fog Fog
6:53 AM 51.1 °F 50.0 °F 96% 30.12 in 0.8 mi Calm Calm - N/A   Mist
7:11 AM 50.0 °F 48.2 °F 94% 30.09 in 0.2 mi Calm Calm - N/A Fog Fog
7:35 AM 50.0 °F 48.2 °F 94% 30.09 in 0.5 mi Calm Calm - N/A Fog Fog
7:53 AM 50.0 °F 48.9 °F 96% 30.12 in 0.5 mi South 3.5 mph - N/A Fog Fog
8:15 AM 51.8 °F 50.0 °F 94% 30.10 in 1.5 mi Calm Calm - N/A   Overcast
8:53 AM 51.1 °F 48.9 °F 92% 30.13 in 1.5 mi Calm Calm - N/A   Overcast
9:06 AM 51.8 °F 50.0 °F 94% 30.10 in 2.5 mi Calm Calm - N/A   Overcast
9:22 AM 51.8 °F 50.0 °F 94% 30.10 in 5.0 mi Calm Calm - N/A   Overcast
9:53 AM 51.1 °F 51.1 °F 100% 30.13 in 2.5 mi Calm Calm - N/A   Overcast
10:12 AM 51.8 °F 51.8 °F 100% 30.09 in 3.0 mi North 3.5 mph - N/A   Overcast
10:26 AM 51.8 °F 51.8 °F 100% 30.08 in 2.5 mi Calm Calm - N/A   Overcast
10:39 AM 53.6 °F 51.8 °F 94% 30.08 in 3.0 mi Calm Calm - N/A   Overcast
10:53 AM 53.1 °F 52.0 °F 96% 30.09 in 4.0 mi Calm Calm - N/A   Overcast
11:35 AM 55.4 °F 51.8 °F 88% 30.04 in 5.0 mi Calm Calm - N/A   Overcast
11:53 AM 57.9 °F 52.0 °F 81% 30.05 in 6.0 mi Calm Calm - N/A   Haze
12:53 PM 63.0 °F 52.0 °F 67% 30.02 in 8.0 mi West 10.4 mph - N/A   Clear
1:42 PM 57.2 °F 51.8 °F 82% 30.00 in 6.0 mi WNW 13.8 mph - N/A   Haze
1:53 PM 55.9 °F 51.1 °F 84% 30.02 in 7.0 mi West 15.0 mph - N/A   Scattered Clouds
2:05 PM 57.2 °F 50.0 °F 77% 29.99 in 8.0 mi West 13.8 mph - N/A   Mostly Cloudy
2:53 PM 57.0 °F 51.1 °F 81% 30.01 in 8.0 mi West 11.5 mph - N/A   Overcast
3:53 PM 57.0 °F 51.1 °F 81% 29.99 in 8.0 mi WNW 10.4 mph - N/A   Overcast
4:17 PM 57.2 °F 50.0 °F 77% 29.96 in 8.0 mi West 5.8 mph - N/A   Scattered Clouds
4:53 PM 57.0 °F 50.0 °F 77% 29.98 in 7.0 mi West 8.1 mph - N/A   Mostly Cloudy
5:32 PM 55.4 °F 50.0 °F 82% 29.94 in 8.0 mi West 9.2 mph - N/A   Scattered Clouds
5:53 PM 55.9 °F 50.0 °F 80% 29.97 in 8.0 mi West 10.4 mph 16.1 mph N/A   Scattered Clouds
6:16 PM 55.4 °F 50.0 °F 82% 29.95 in 8.0 mi West 11.5 mph 20.7 mph N/A   Mostly Cloudy
6:53 PM 55.9 °F 50.0 °F 80% 29.99 in 8.0 mi WSW 13.8 mph 18.4 mph N/A   Overcast
7:53 PM 55.9 °F 48.9 °F 77% 29.97 in 8.0 mi West 13.8 mph 20.7 mph N/A   Overcast
8:24 PM 55.4 °F 48.2 °F 77% 29.94 in 9.0 mi West 11.5 mph - N/A   Scattered Clouds
8:53 PM 55.0 °F 48.9 °F 80% 29.96 in 8.0 mi WSW 10.4 mph - N/A   Scattered Clouds
9:01 PM 55.4 °F 48.2 °F 77% 29.93 in 8.0 mi WSW 12.7 mph - N/A   Mostly Cloudy
9:34 PM 55.4 °F 48.2 °F 77% 29.93 in 8.0 mi Variable 6.9 mph - N/A   Scattered Clouds
9:53 PM 54.0 °F 48.0 °F 80% 29.96 in 8.0 mi WNW 8.1 mph - N/A   Clear
10:53 PM 54.0 °F 48.0 °F 80% 29.95 in 8.0 mi West 8.1 mph - N/A   Clear
11:53 PM 54.0 °F 48.0 °F 80% 29.95 in 8.0 mi Variable 4.6 mph - N/A   Clear